Theta_e
309 309 309 309 309 310 310 311 311 311 312 312 313 315 316 317 318 324 332 328 332 326 327 335 336 338 340 342 341 343 348 342 341 342 342 340 341 341 341 344 344 341 338 340 339
309 309 308 309 309 310 310 312 313 313 313 313 313 315 316 318 323 331 328 328 327 326 336 335 335 337 342 341 342 343 341 340 339 340 340 340 340 341 344 345 344 340 338 337 340
309 309 309 309 309 309 310 313 315 316 316 314 314 315 316 317 332 336 327 327 327 326 334 331 333 337 339 339 339 340 339 340 340 340 341 342 341 341 343 345 342 342 341 341 342
309 309 309 308 309 309 311 314 316 317 317 316 314 316 316 324 335 334 327 327 326 331 332 333 335 337 337 336 337 339 338 340 341 340 342 343 341 344 345 346 342 340 340 342 343
309 309 308 308 309 310 312 314 317 317 318 317 315 316 320 331 334 328 328 327 327 332 332 334 336 336 335 335 336 339 337 340 342 342 342 342 344 344 347 344 341 340 342 343 344
309 309 309 309 309 310 312 316 318 319 318 318 316 316 324 331 334 331 333 330 334 333 333 334 335 334 336 335 337 336 338 339 341 342 344 344 344 344 348 345 342 342 343 344 344
308 308 308 309 309 310 313 316 319 319 320 319 316 317 327 331 333 334 334 333 332 332 334 333 333 334 334 336 337 338 341 341 339 342 343 343 346 348 347 346 344 342 343 342 343
308 308 308 309 309 311 313 316 318 318 318 317 317 325 329 328 330 333 333 333 332 332 332 333 333 334 335 336 336 339 342 340 340 340 344 344 354 348 347 347 347 346 345 344 343
308 308 308 309 309 312 313 316 319 319 317 318 322 328 330 325 329 331 332 333 333 333 333 332 332 335 335 335 340 342 343 337 341 340 341 342 348 348 345 344 346 346 344 342 343
308 308 308 309 309 312 314 317 321 317 321 325 325 325 329 330 331 331 331 331 333 334 333 334 335 336 336 336 342 342 336 335 337 338 337 339 341 347 345 343 345 344 343 343 343
307 307 308 309 309 312 316 323 323 325 324 325 326 329 330 330 328 331 331 332 333 334 335 336 335 336 335 335 335 336 335 337 339 340 339 341 340 342 345 344 342 343 343 344 344
307 307 308 309 309 314 318 322 320 320 322 324 324 325 325 327 332 332 331 333 334 334 335 335 336 335 334 334 334 335 336 336 337 340 340 340 344 342 342 342 344 343 344 345 345
306 306 307 309 312 319 319 318 317 319 325 324 324 325 327 328 332 332 332 333 334 334 335 335 336 334 333 334 335 335 335 337 334 336 341 338 346 345 343 343 342 341 344 344 342
306 305 306 308 315 317 321 317 317 321 328 325 323 326 327 330 331 332 331 332 333 333 334 335 335 333 333 334 334 335 335 335 335 337 339 343 349 347 345 344 342 343 342 341 341
305 304 306 306 314 319 318 316 319 323 333 326 324 326 329 329 330 331 330 331 332 333 333 333 334 333 334 334 334 334 334 333 335 337 338 346 345 351 344 343 342 341 342 342 341
304 304 305 314 318 319 317 319 324 332 337 326 325 324 328 328 329 331 330 330 331 332 333 333 333 332 332 333 333 333 335 343 341 342 344 343 343 349 348 338 340 339 336 335 336
304 306 305 310 318 318 321 324 335 338 332 327 324 324 327 328 329 329 330 330 330 332 333 332 333 333 331 333 337 337 338 347 352 354 347 343 342 350 344 338 335 335 336 337 337
304 307 314 314 318 321 324 330 342 333 331 327 325 326 327 329 329 329 331 331 331 332 333 334 334 332 332 332 334 334 338 339 344 339 341 342 347 345 341 339 336 336 338 338 338
304 313 316 319 321 322 328 332 338 333 330 328 325 326 328 328 329 329 330 331 332 332 333 334 333 332 332 332 333 335 336 338 339 339 341 343 341 341 339 339 338 338 340 339 340
307 314 317 322 323 324 327 329 333 331 329 329 327 328 329 328 328 330 330 330 330 331 332 334 336 333 333 332 332 335 335 335 343 351 347 341 347 350 344 341 339 340 340 340 339
314 319 323 322 323 328 327 330 329 327 329 332 332 329 332 329 328 329 329 330 329 330 331 332 335 334 332 333 334 335 338 342 337 338 344 345 345 343 344 341 341 341 340 340 339
314 319 320 323 328 329 328 327 318 327 330 332 335 335 334 333 329 329 330 330 329 330 331 330 334 335 333 336 334 332 335 338 340 344 346 344 345 342 343 343 341 341 342 341 338
318 319 318 324 327 329 326 325 325 328 332 333 335 335 335 335 335 333 331 331 333 332 335 334 335 338 335 335 340 338 337 337 338 340 339 338 343 342 344 344 343 342 341 340 336
317 319 319 324 327 332 328 326 328 327 332 333 336 336 336 335 334 337 333 335 332 334 331 338 336 338 334 334 336 338 333 335 335 338 337 336 335 345 345 346 345 344 341 338 334
317 320 329 325 324 327 331 328 327 331 331 334 335 336 335 336 335 335 334 338 337 335 334 338 342 335 334 332 332 332 332 333 335 336 338 338 338 336 344 346 346 344 341 334 335
321 319 323 326 331 329 325 331 327 329 335 334 338 335 337 337 339 346 339 337 338 340 341 343 342 338 334 332 335 335 334 334 334 335 337 338 337 341 341 342 345 344 339 336 335
318 318 324 322 326 327 327 328 330 330 334 337 339 340 336 341 341 343 344 346 346 345 344 346 342 342 338 335 340 338 336 337 337 336 337 338 336 346 348 344 344 341 338 337 336
Wind_Speed
27 26 26 26 25 23 22 21 16 13 12 11 11 12 12 13 16 10 9 5 0 3 5 5 8 9 8 11 7 11 7 1 10 3 3 12 2 6 3 7 9 9 10 17 16
27 28 28 27 27 25 25 19 15 13 12 11 11 11 13 14 15 19 3 2 4 3 7 9 8 2 12 1 2 10 6 17 10 9 12 5 5 8 2 7 11 12 12 17 17
27 27 29 28 28 29 26 18 15 14 13 11 10 10 11 13 13 8 4 3 5 6 9 9 10 8 13 3 4 6 12 12 13 10 9 11 2 5 8 8 7 14 13 15 15
28 28 29 31 28 30 23 18 19 15 13 11 9 9 10 7 5 8 5 4 5 7 12 10 8 13 10 3 4 9 10 9 11 6 4 10 6 11 8 7 6 13 13 11 10
28 29 30 32 30 32 21 20 20 14 11 10 8 8 7 11 4 7 5 6 7 7 11 11 10 11 14 8 4 5 8 4 5 3 9 3 7 6 9 4 4 7 10 10 9
30 30 32 32 31 32 21 22 17 13 10 8 8 7 9 16 8 8 8 8 8 9 11 9 11 11 10 6 8 4 4 4 1 5 6 7 9 3 8 3 7 8 8 6 2
31 32 33 33 33 29 21 21 12 10 7 7 7 6 12 6 5 8 9 8 8 9 10 6 11 14 10 6 2 2 15 12 9 9 3 5 9 12 6 5 6 7 6 3 5
31 33 33 33 34 25 21 16 7 6 3 4 6 7 13 8 6 8 10 10 9 9 11 12 13 14 8 5 9 12 20 9 14 3 7 8 10 9 7 9 6 5 5 6 4
31 33 33 33 35 21 21 13 4 5 1 3 6 10 14 8 11 12 12 13 10 9 9 10 15 16 10 15 23 31 13 9 12 11 3 1 12 9 5 5 4 8 6 5 7
31 33 34 33 36 20 20 9 7 6 3 6 10 7 9 14 16 9 8 7 10 11 11 12 17 15 16 9 4 13 10 6 2 9 8 4 7 13 7 5 7 5 8 6 6
31 32 33 32 33 17 20 8 6 6 15 9 6 13 4 4 5 13 12 10 12 12 16 17 11 7 10 8 11 11 11 12 14 8 8 7 7 8 13 8 7 8 8 8 4
30 32 33 31 27 14 13 6 7 7 9 11 11 9 5 5 12 14 12 11 13 15 19 9 13 2 5 8 10 15 17 9 3 6 7 14 15 12 7 5 7 5 7 8 7
30 32 34 31 15 10 7 5 7 8 7 11 13 13 11 13 15 18 14 14 13 15 15 15 7 5 8 13 15 14 8 14 16 10 18 7 3 4 10 6 5 6 4 4 1
28 31 32 35 5 17 2 5 10 5 5 13 12 9 9 12 12 10 14 16 11 14 13 14 12 4 11 16 15 13 10 16 20 13 9 13 6 4 9 5 7 9 9 6 4
28 30 30 24 15 9 7 9 9 4 6 8 15 7 14 16 14 14 10 11 15 13 8 15 11 6 12 10 12 16 15 18 18 15 16 10 10 11 29 7 6 5 6 5 3
29 28 31 8 9 11 11 9 5 7 3 9 10 12 16 19 18 5 11 13 10 14 13 14 15 5 15 6 9 10 13 18 16 14 6 11 13 8 6 9 8 8 8 4 2
29 26 28 13 7 10 11 8 7 8 5 7 11 17 19 18 17 12 13 16 14 12 16 18 18 10 3 14 9 8 15 3 4 8 4 17 11 8 21 8 8 6 9 6 6
29 26 16 11 9 10 11 8 8 5 1 4 8 14 17 15 17 14 9 13 18 18 13 7 11 9 7 9 11 14 9 9 18 10 7 11 5 11 12 10 6 6 6 6 9
28 13 13 10 7 7 8 9 5 3 4 5 9 15 12 12 9 16 15 13 8 12 14 4 8 7 2 5 4 7 9 11 12 17 12 2 3 7 12 11 7 6 7 6 7
19 13 15 6 7 8 7 13 7 3 5 9 12 13 13 13 13 12 14 12 14 7 9 4 9 2 8 6 12 10 11 11 4 5 14 7 12 3 24 13 8 8 7 5 4
8 5 7 5 6 7 9 5 2 2 3 5 4 8 4 9 11 13 9 10 6 12 14 11 7 13 4 13 8 5 4 11 6 8 11 12 3 14 26 8 7 6 5 4 4
7 6 8 8 7 9 11 3 2 7 4 5 7 6 3 2 6 6 7 2 3 5 9 13 6 11 16 6 6 8 11 11 9 3 8 9 5 10 6 4 7 6 5 7 7
4 8 6 9 7 10 9 8 5 5 3 3 7 5 2 4 3 3 2 9 2 6 2 6 7 9 15 11 15 14 9 3 6 10 14 13 4 11 8 7 6 5 6 4 4
4 5 7 8 11 10 6 11 9 7 6 5 6 5 7 5 5 2 7 4 5 7 5 4 8 8 13 6 9 11 8 10 5 8 14 15 6 9 10 9 6 3 2 7 5
4 4 5 6 11 11 6 4 12 7 8 6 7 11 11 7 8 9 6 10 5 5 4 5 10 14 13 13 10 12 14 11 9 11 13 16 19 16 7 8 7 5 2 1 1
4 3 3 8 4 7 7 11 11 7 5 10 9 5 8 9 7 11 3 1 6 8 7 5 8 9 13 16 11 14 14 13 14 14 15 13 17 13 4 4 6 6 2 3 5
1 6 4 5 8 10 13 13 10 0 6 5 3 7 12 6 6 8 5 4 5 5 7 6 9 7 13 11 11 10 11 15 10 13 16 13 15 13 20 7 8 4 2 1 3
Wind_Direction
8 7 6 3 359 355 348 340 334 328 319 315 306 308 317 314 304 282 259 78 105 252 224 245 245 252 246 248 271 261 358 7 58 47 78 102 222 68 48 121 71 56 72 110 140
6 3 2 1 356 352 345 340 331 324 315 305 300 303 314 315 297 259 108 257 234 223 215 250 303 269 246 208 262 283 344 36 26 7 355 79 301 104 150 134 130 101 101 125 150
3 2 358 359 354 351 344 338 329 318 309 297 289 295 308 315 273 96 111 201 205 213 268 300 281 259 276 245 45 313 26 9 56 33 339 25 45 46 51 354 137 128 135 145 155
1 359 358 355 354 349 343 335 326 313 300 286 276 287 300 285 267 90 97 165 194 220 279 279 267 275 281 351 58 285 70 19 24 38 2 37 23 89 32 68 56 115 141 153 171
358 356 355 353 353 347 344 333 326 314 298 272 260 274 290 227 225 119 124 155 197 244 267 302 276 335 347 347 306 283 55 47 61 74 19 10 50 57 86 82 130 138 150 168 189
354 353 352 353 351 347 344 336 328 313 291 256 238 255 246 250 103 126 150 171 217 233 285 291 333 344 290 334 311 24 359 61 30 72 109 256 111 211 103 141 153 162 174 171 141
351 351 351 351 350 347 345 338 336 327 293 228 215 224 257 256 153 161 174 198 226 253 288 334 310 301 344 262 5 245 240 192 109 62 83 289 184 91 105 178 149 183 182 206 197
349 348 348 349 350 345 344 337 352 358 3 191 199 230 256 165 194 198 202 234 227 247 265 286 293 283 268 338 248 259 325 126 95 31 98 271 94 111 153 182 151 178 171 201 145
346 346 347 348 348 343 340 326 281 2 22 188 217 229 223 167 208 215 213 241 193 230 246 278 264 269 253 229 32 324 262 40 103 74 319 254 108 130 144 125 149 182 171 169 174
345 344 344 346 347 339 339 325 249 268 243 242 267 223 234 204 185 201 206 244 249 235 236 232 240 251 262 345 181 241 352 349 16 56 323 10 26 124 171 193 156 164 177 188 208
343 342 341 344 345 342 339 282 215 201 216 255 199 224 125 125 187 210 194 222 238 248 257 228 284 256 18 334 328 307 306 19 327 96 300 61 312 99 168 173 179 182 173 202 221
342 340 338 340 343 352 317 20 40 341 294 237 252 266 251 245 200 218 185 225 214 245 230 253 250 59 329 299 290 287 302 332 243 347 295 354 43 14 160 153 170 189 179 195 193
341 339 337 337 338 334 344 40 344 321 256 208 219 229 201 206 217 196 196 224 247 237 262 266 245 81 279 288 285 298 346 316 317 311 73 261 215 263 120 182 110 125 195 161 239
337 338 336 339 305 333 280 337 330 306 261 164 199 218 190 216 219 234 190 243 238 255 250 259 275 350 283 281 295 294 347 313 300 290 302 228 117 178 268 146 230 175 162 133 125
334 333 331 338 304 312 341 323 324 243 237 146 156 114 194 207 202 197 227 242 262 243 227 262 253 266 268 298 336 302 321 301 308 291 284 22 298 57 326 143 132 115 119 121 168
327 330 326 343 280 281 309 309 270 230 216 154 169 195 201 205 231 126 201 231 269 277 273 264 285 254 281 334 305 306 279 41 351 351 307 207 251 140 170 134 117 109 93 115 77
324 322 315 295 286 315 308 261 237 255 115 154 186 184 196 194 211 206 205 201 226 222 243 239 238 226 256 259 203 256 273 125 258 255 167 281 338 160 222 106 103 118 111 92 9
323 319 302 266 270 294 284 251 264 42 144 91 178 188 198 190 208 196 227 226 208 252 282 254 237 178 187 274 334 306 337 303 311 330 348 163 204 232 129 106 141 145 108 53 29
329 317 272 269 239 254 267 245 317 72 41 197 192 188 196 186 225 210 215 243 220 208 250 254 218 133 255 274 284 336 284 336 310 315 283 102 191 61 129 121 172 112 83 64 59
327 300 258 193 211 233 252 260 300 20 285 256 192 207 186 196 198 209 210 219 246 227 233 285 292 254 118 264 233 259 308 285 93 227 273 182 94 163 301 153 132 129 111 86 33
295 260 132 185 201 233 243 240 260 86 284 251 267 203 216 160 200 209 236 201 243 236 217 240 252 282 175 227 285 254 253 261 293 317 11 346 324 195 210 185 125 117 99 93 20
282 242 141 171 233 230 243 230 36 266 210 252 296 326 199 157 214 228 223 225 139 257 238 225 241 258 261 79 277 281 298 327 306 2 170 192 255 126 342 161 150 123 125 50 3
258 277 170 214 238 223 213 250 238 246 228 220 216 285 241 197 190 225 40 74 162 219 24 143 219 248 243 224 360 286 274 273 294 292 279 295 32 195 164 156 169 136 108 168 5
269 243 202 211 264 287 201 233 214 197 250 247 285 238 209 219 207 205 202 127 192 235 36 337 273 260 292 337 219 230 253 242 281 289 309 311 321 126 197 170 152 177 124 44 359
231 252 2 194 218 229 268 295 222 198 228 221 213 240 216 226 224 206 237 131 174 142 206 228 252 258 252 282 308 288 292 297 246 261 288 309 305 309 164 173 182 145 113 20 14
289 279 265 283 276 229 194 232 240 194 242 198 249 172 248 236 329 355 18 342 168 167 190 200 264 277 291 287 242 271 284 285 276 276 275 298 288 3 154 196 151 191 130 277 36
162 271 278 230 210 233 224 231 224 65 220 295 299 276 229 57 5 342 319 295 296 286 208 221 272 258 271 297 322 273 280 284 308 311 316 290 289 153 185 235 183 189 181 6 7